Regional Weather Roundup
Issued by NWS Cleveland, OH

Home | Current Version | Previous Version | Graphics & Text | Print | Product List | Glossary On
Versions: 1 2 3 4 5 6 7 8 9 10 11 12 13 14 15 16 17 18 19 20 21 22 23 24 25 26 27 28 29 30 31 32 33 34 35 36 37 38 39 40 41 42 43 44 45 46 47 48 49 50
000
ASUS41 KCLE 221802
RWRCLE
OHIO REGIONAL WEATHER ROUNDUP
NATIONAL WEATHER SERVICE CLEVELAND, OH
100 PM EST MON JAN 22 2018

NOTE: "FAIR" INDICATES FEW OR NO CLOUDS BELOW 12,000 FEET WITH NO
SIGNIFICANT WEATHER AND/OR OBSTRUCTIONS TO VISIBILITY.

OHZ001>008-015>018-024>027-034-035-043-044-221900-
   NORTHWEST OHIO

CITY           SKY/WX    TMP DP  RH WIND       PRES   REMARKS
DEFIANCE       LGT RAIN  53  46  77 S15G25    29.71F
FINDLAY        CLOUDY    55  45  68 S23G30    29.76F
TOLEDO EXPRESS CLOUDY    57  48  72 S16G25    29.72F
TOLEDO EXEC    FAIR      58  47  66 S14G25    29.75F
LIMA           CLOUDY    56  46  69 S21G30    29.75F
$$

OHZ009>014-019>023-028>033-038-089-221900-
   NORTHEAST OHIO

CITY           SKY/WX    TMP DP  RH WIND       PRES   REMARKS
CLE-HOPKINS    CLOUDY    60  46  59 S20G28    29.85F
CLE-LAKEFRONT  PTSUNNY   62  44  51 S22G28    29.81F
CUY CO. ARPT   PTSUNNY   63  34  34 S17G29    29.84F
LORAIN-ELYRIA  PTSUNNY   59  44  57 SW14      29.82F
ASHTABULA      FAIR      54  48  80 S13       29.86F
AKRON-CANTON   CLOUDY    57  46  66 S15       29.86F
WOOSTER        FAIR      56  45  66 S13       29.86F
MANSFIELD      FAIR      57  46  66 S16       29.84F
YOUNGSTOWN     CLOUDY    55  46  71 S8        29.88F
$$

OHZ042-051>053-060>062-070>072-077>081-221900-
  SOUTHWEST OHIO

CITY           SKY/WX    TMP DP  RH WIND       PRES   REMARKS
CINC-COVINGTON LGT RAIN  54  49  83 S12       29.82F
CINC-LUNKEN    LGT RAIN  57  47  69 S9G20     29.84F
HAMILTON       LGT RAIN  55  48  77 S7        29.83F
DAYTON         LGT RAIN  54  47  77 S21G30    29.82F
WRIGHT-PAT AFB LGT RAIN  56  42  58 S12       29.82F
DAYTON GENERAL LGT RAIN  55  46  71 S12       29.82F
WILMINGTON     CLOUDY    56  47  71 S14       29.84F
$$

OHZ036-037-039>041-045>050-054>059-063>069-073>076-082>088-221900-
  CENTRAL AND SOUTHEAST OHIO

CITY           SKY/WX    TMP DP  RH WIND       PRES   REMARKS
COLUMBUS       CLOUDY    59  47  64 S13       29.86F
OSU AIRPORT    PTSUNNY   57  48  72 S12       29.85F
BOLTON FIELD   CLOUDY    55  48  76 SW6       29.87F
RICKENBACK AFB NOT AVBL
NEWARK         CLOUDY    59  45  59 S9        29.85
MARION         FAIR      56  45  66 S17G25    29.83F
LANCASTER      CLOUDY    61  46  57 S15G24    29.86F
ZANESVILLE     FAIR      61  46  57 S13       29.87F
NEW PHILLY     NOT AVBL
$$




USA.gov is the U.S. government's official web portal to all federal, state and local government web resources and services.